Time,TemperatureF,DewpointF,PressureIn,WindDirection,WindDirectionDegrees,WindSpeedMPH,WindSpeedGustMPH,Humidity,HourlyPrecipIn,Conditions,Clouds,dailyrainin,SolarRadiationWatts/m^2,SoftwareType,DateUTC
2013-03-03 00:00:00,29.0,22.4,29.81,West,270,6.0,6.0,76,-99.99,,,0.00,0.00,VWS V14.01,2013-03-03 05:00:00,
2013-03-03 00:01:00,29.0,21.1,29.81,West,270,12.0,15.0,72,-99.99,,,0.00,0.00,VWS V14.01,2013-03-03 05:01:00,
2013-03-03 00:02:00,29.0,20.8,29.81,West,270,6.0,15.0,71,-99.99,,,0.00,0.00,VWS V14.01,2013-03-03 05:02:00,
2013-03-03 00:03:00,29.0,20.8,29.81,West,270,7.0,11.0,71,-99.99,,,0.00,0.00,VWS V14.01,2013-03-03 05:03:00,
2013-03-03 00:04:00,29.0,20.8,29.81,WSW,248,8.0,9.0,71,-99.99,,,0.00,0.00,VWS V14.01,2013-03-03 05:04:00,
2013-03-03 00:05:00,29.0,20.8,29.81,WNW,292,7.0,15.0,71,-99.99,,,0.00,0.00,VWS V14.01,2013-03-03 05:05:00,
2013-03-03 00:06:00,29.0,20.5,29.81,WSW,248,10.0,12.0,70,-99.99,,,0.00,0.00,VWS V14.01,2013-03-03 05:06:00,
2013-03-03 00:07:00,29.0,20.5,29.81,West,270,6.0,11.0,70,-99.99,,,0.00,0.00,VWS V14.01,2013-03-03 05:07:00,
2013-03-03 00:08:00,29.0,20.5,29.81,WSW,248,8.0,8.0,70,-99.99,,,0.00,0.00,VWS V14.01,2013-03-03 05:08:00,
2013-03-03 00:09:00,29.0,20.5,29.81,WSW,248,11.0,14.0,70,-99.99,,,0.00,0.00,VWS V14.01,2013-03-03 05:09:00,
2013-03-03 00:10:00,29.0,20.5,29.81,West,270,8.0,11.0,70,-99.99,,,0.00,0.00,VWS V14.01,2013-03-03 05:10:00,
2013-03-03 00:11:00,29.0,20.1,29.81,WNW,292,9.0,15.0,69,-99.99,,,0.00,0.00,VWS V14.01,2013-03-03 05:11:00,
2013-03-03 00:12:00,29.0,20.1,29.81,West,270,11.0,13.0,69,-99.99,,,0.00,0.00,VWS V14.01,2013-03-03 05:12:00,
2013-03-03 00:13:00,29.0,20.1,29.81,West,270,9.0,12.0,69,-99.99,,,0.00,0.00,VWS V14.01,2013-03-03 05:13:00,
2013-03-03 00:14:00,29.0,20.1,29.81,West,270,6.0,13.0,69,-99.99,,,0.00,0.00,VWS V14.01,2013-03-03 05:14:00,
2013-03-03 00:15:00,29.0,20.1,29.81,West,270,8.0,13.0,69,-99.99,,,0.00,0.00,VWS V14.01,2013-03-03 05:15:00,
2013-03-03 00:16:00,29.0,20.1,29.81,WNW,292,8.0,10.0,69,-99.99,,,0.00,0.00,VWS V14.01,2013-03-03 05:16:00,
2013-03-03 00:17:00,29.0,20.1,29.81,WSW,248,11.0,14.0,69,-99.99,,,0.00,0.00,VWS V14.01,2013-03-03 05:17:00,
2013-03-03 00:18:00,29.0,19.8,29.81,WNW,292,9.0,18.0,68,-99.99,,,0.00,0.00,VWS V14.01,2013-03-03 05:18:00,
2013-03-03 00:19:00,29.0,19.8,29.81,West,270,11.0,13.0,68,-99.99,,,0.00,0.00,VWS V14.01,2013-03-03 05:19:00,
2013-03-03 00:20:00,29.0,20.1,29.81,WSW,248,9.0,10.0,69,-99.99,,,0.00,0.00,VWS V14.01,2013-03-03 05:20:00,
2013-03-03 00:21:00,29.0,19.4,29.81,WSW,248,8.0,13.0,67,-99.99,,,0.00,0.00,VWS V14.01,2013-03-03 05:21:00,
2013-03-03 00:22:00,29.0,19.4,29.81,WSW,248,13.0,18.0,67,-99.99,,,0.00,0.00,VWS V14.01,2013-03-03 05:22:00,
2013-03-03 00:23:00,28.0,18.5,29.81,West,270,15.0,17.0,67,-99.99,,,0.00,0.00,VWS V14.01,2013-03-03 05:23:00,
2013-03-03 00:24:00,28.0,18.5,29.81,WSW,248,13.0,18.0,67,-99.99,,,0.00,0.00,VWS V14.01,2013-03-03 05:24:00,
2013-03-03 00:25:00,29.0,19.4,29.81,West,270,12.0,18.0,67,-99.99,,,0.00,0.00,VWS V14.01,2013-03-03 05:25:00,
2013-03-03 00:26:00,28.0,18.5,29.81,West,270,10.0,11.0,67,-99.99,,,0.00,0.00,VWS V14.01,2013-03-03 05:26:00,
2013-03-03 00:27:00,28.0,18.5,29.81,WSW,248,9.0,16.0,67,-99.99,,,0.00,0.00,VWS V14.01,2013-03-03 05:27:00,
2013-03-03 00:28:00,28.0,18.5,29.81,West,270,11.0,16.0,67,-99.99,,,0.00,0.00,VWS V14.01,2013-03-03 05:28:00,
2013-03-03 00:29:00,28.0,18.5,29.81,WSW,248,10.0,17.0,67,-99.99,,,0.00,0.00,VWS V14.01,2013-03-03 05:29:00,
2013-03-03 00:30:00,28.0,18.5,29.81,SW,225,16.0,16.0,67,-99.99,,,0.00,0.00,VWS V14.01,2013-03-03 05:30:00,
2013-03-03 00:31:00,28.0,18.5,29.81,WSW,248,10.0,18.0,67,-99.99,,,0.00,0.00,VWS V14.01,2013-03-03 05:31:00,
2013-03-03 00:32:00,28.0,18.5,29.81,WSW,248,13.0,19.0,67,-99.99,,,0.00,0.00,VWS V14.01,2013-03-03 05:32:00,
2013-03-03 00:33:00,28.0,18.5,29.81,SW,225,12.0,16.0,67,-99.99,,,0.00,0.00,VWS V14.01,2013-03-03 05:33:00,
2013-03-03 00:34:00,28.0,18.5,29.81,WSW,248,13.0,15.0,67,-99.99,,,0.00,0.00,VWS V14.01,2013-03-03 05:34:00,
2013-03-03 00:35:00,28.0,18.5,29.81,WSW,248,12.0,19.0,67,-99.99,,,0.00,0.00,VWS V14.01,2013-03-03 05:35:00,
2013-03-03 00:36:00,28.0,18.8,29.81,West,270,11.0,15.0,68,-99.99,,,0.00,0.00,VWS V14.01,2013-03-03 05:36:00,
2013-03-03 00:37:00,28.0,18.8,29.81,WSW,248,10.0,16.0,68,-99.99,,,0.00,0.00,VWS V14.01,2013-03-03 05:37:00,
2013-03-03 00:38:00,28.0,18.8,29.81,WSW,248,11.0,13.0,68,-99.99,,,0.00,0.00,VWS V14.01,2013-03-03 05:38:00,
2013-03-03 00:39:00,28.0,18.8,29.81,West,270,8.0,11.0,68,-99.99,,,0.00,0.00,VWS V14.01,2013-03-03 05:39:00,
2013-03-03 00:40:00,28.0,18.8,29.81,WSW,248,11.0,16.0,68,-99.99,,,0.00,0.00,VWS V14.01,2013-03-03 05:40:00,
2013-03-03 00:41:00,28.0,18.8,29.81,SW,225,7.0,17.0,68,-99.99,,,0.00,0.00,VWS V14.01,2013-03-03 05:41:00,
2013-03-03 00:42:00,28.0,18.8,29.81,WSW,248,12.0,14.0,68,-99.99,,,0.00,0.00,VWS V14.01,2013-03-03 05:42:00,
2013-03-03 00:43:00,28.0,18.8,29.81,WSW,248,19.0,20.0,68,-99.99,,,0.00,0.00,VWS V14.01,2013-03-03 05:43:00,
2013-03-03 00:44:00,28.0,19.2,29.81,WSW,248,15.0,20.0,69,-99.99,,,0.00,0.00,VWS V14.01,2013-03-03 05:44:00,
2013-03-03 00:45:00,28.0,18.8,29.81,WSW,248,10.0,14.0,68,-99.99,,,0.00,0.00,VWS V14.01,2013-03-03 05:45:00,
2013-03-03 00:46:00,28.0,19.2,29.81,WSW,248,18.0,19.0,69,-99.99,,,0.00,0.00,VWS V14.01,2013-03-03 05:46:00,
2013-03-03 00:47:00,28.0,19.2,29.81,WSW,248,11.0,18.0,69,-99.99,,,0.00,0.00,VWS V14.01,2013-03-03 05:47:00,
2013-03-03 00:48:00,28.0,19.2,29.81,West,270,11.0,14.0,69,-99.99,,,0.00,0.00,VWS V14.01,2013-03-03 05:48:00,
2013-03-03 00:49:00,28.0,19.2,29.81,West,270,8.0,13.0,69,-99.99,,,0.00,0.00,VWS V14.01,2013-03-03 05:49:00,
2013-03-03 00:50:00,28.0,19.2,29.81,WSW,248,15.0,18.0,69,-99.99,,,0.00,0.00,VWS V14.01,2013-03-03 05:50:00,
2013-03-03 00:51:00,28.0,19.2,29.81,WNW,292,10.0,14.0,69,-99.99,,,0.00,0.00,VWS V14.01,2013-03-03 05:51:00,
2013-03-03 00:52:00,28.0,19.2,29.81,West,270,12.0,12.0,69,-99.99,,,0.00,0.00,VWS V14.01,2013-03-03 05:52:00,
2013-03-03 00:53:00,28.0,19.2,29.81,WSW,248,11.0,12.0,69,-99.99,,,0.00,0.00,VWS V14.01,2013-03-03 05:53:00,
2013-03-03 00:54:00,28.0,19.2,29.81,West,270,4.0,12.0,69,-99.99,,,0.00,0.00,VWS V14.01,2013-03-03 05:54:00,
2013-03-03 00:55:00,28.0,19.2,29.81,West,270,12.0,12.0,69,-99.99,,,0.00,0.00,VWS V14.01,2013-03-03 05:55:00,
2013-03-03 00:56:00,28.0,19.2,29.81,WSW,248,13.0,13.0,69,-99.99,,,0.00,0.00,VWS V14.01,2013-03-03 05:56:00,
2013-03-03 00:57:00,28.0,19.2,29.81,WSW,248,10.0,13.0,69,-99.99,,,0.00,0.00,VWS V14.01,2013-03-03 05:57:00,
2013-03-03 00:58:00,28.0,19.2,29.81,West,270,8.0,13.0,69,-99.99,,,0.00,0.00,VWS V14.01,2013-03-03 05:58:00,
2013-03-03 00:59:00,28.0,19.2,29.81,WSW,248,5.0,9.0,69,-99.99,,,0.00,0.00,VWS V14.01,2013-03-03 05:59:00,
2013-03-03 01:00:00,28.0,19.2,29.81,WSW,248,12.0,13.0,69,-99.99,,,0.00,0.00,VWS V14.01,2013-03-03 06:00:00,
2013-03-03 01:01:00,28.0,19.2,29.81,WSW,248,4.0,11.0,69,-99.99,,,0.00,0.00,VWS V14.01,2013-03-03 06:01:00,
2013-03-03 01:02:00,28.0,19.2,29.81,WSW,248,7.0,9.0,69,-99.99,,,0.00,0.00,VWS V14.01,2013-03-03 06:02:00,
2013-03-03 01:03:00,28.0,19.2,29.81,WSW,248,9.0,11.0,69,-99.99,,,0.00,0.00,VWS V14.01,2013-03-03 06:03:00,
2013-03-03 01:04:00,28.0,19.2,29.81,WSW,248,10.0,12.0,69,-99.99,,,0.00,0.00,VWS V14.01,2013-03-03 06:04:00,
2013-03-03 01:05:00,28.0,19.2,29.81,WSW,248,8.0,9.0,69,-99.99,,,0.00,0.00,VWS V14.01,2013-03-03 06:05:00,
2013-03-03 01:06:00,28.0,19.5,29.81,WSW,248,10.0,12.0,70,-99.99,,,0.00,0.00,VWS V14.01,2013-03-03 06:06:00,
2013-03-03 01:07:00,28.0,19.5,29.81,WSW,248,10.0,14.0,70,-99.99,,,0.00,0.00,VWS V14.01,2013-03-03 06:07:00,
2013-03-03 01:08:00,28.0,19.5,29.81,WSW,248,9.0,12.0,70,-99.99,,,0.00,0.00,VWS V14.01,2013-03-03 06:08:00,
2013-03-03 01:09:00,28.0,19.5,29.81,West,270,12.0,14.0,70,-99.99,,,0.00,0.00,VWS V14.01,2013-03-03 06:09:00,
2013-03-03 01:10:00,28.0,19.5,29.81,WSW,248,11.0,14.0,70,-99.99,,,0.00,0.00,VWS V14.01,2013-03-03 06:10:00,
2013-03-03 01:11:00,28.0,19.5,29.81,WSW,248,11.0,14.0,70,-99.99,,,0.00,0.00,VWS V14.01,2013-03-03 06:11:00,
2013-03-03 01:12:00,28.0,19.5,29.81,WNW,292,7.0,12.0,70,-99.99,,,0.00,0.00,VWS V14.01,2013-03-03 06:12:00,
2013-03-03 01:13:00,28.0,19.5,29.81,WSW,248,8.0,8.0,70,-99.99,,,0.00,0.00,VWS V14.01,2013-03-03 06:13:00,
2013-03-03 01:14:00,28.0,19.5,29.81,WSW,248,10.0,12.0,70,-99.99,,,0.00,0.00,VWS V14.01,2013-03-03 06:14:00,
2013-03-03 01:15:00,28.0,19.5,29.81,WNW,292,7.0,12.0,70,-99.99,,,0.00,0.00,VWS V14.01,2013-03-03 06:15:00,
2013-03-03 01:16:00,28.0,19.5,29.81,WSW,248,10.0,11.0,70,-99.99,,,0.00,0.00,VWS V14.01,2013-03-03 06:16:00,
2013-03-03 01:17:00,28.0,19.5,29.81,West,270,13.0,16.0,70,-99.99,,,0.00,0.00,VWS V14.01,2013-03-03 06:17:00,
2013-03-03 01:18:00,28.0,19.5,29.81,West,270,10.0,14.0,70,-99.99,,,0.00,0.00,VWS V14.01,2013-03-03 06:18:00,
2013-03-03 01:19:00,28.0,19.5,29.81,WSW,248,13.0,13.0,70,-99.99,,,0.00,0.00,VWS V14.01,2013-03-03 06:19:00,
2013-03-03 01:20:00,28.0,19.5,29.81,West,270,11.0,16.0,70,-99.99,,,0.00,0.00,VWS V14.01,2013-03-03 06:20:00,
2013-03-03 01:21:00,27.0,18.5,29.81,WSW,248,9.0,12.0,70,-99.99,,,0.00,0.00,VWS V14.01,2013-03-03 06:21:00,
2013-03-03 01:22:00,28.0,19.5,29.81,WSW,248,13.0,17.0,70,-99.99,,,0.00,0.00,VWS V14.01,2013-03-03 06:22:00,
2013-03-03 01:23:00,27.0,18.5,29.81,West,270,14.0,17.0,70,-99.99,,,0.00,0.00,VWS V14.01,2013-03-03 06:23:00,
2013-03-03 01:24:00,27.0,18.2,29.81,WSW,248,16.0,18.0,69,-99.99,,,0.00,0.00,VWS V14.01,2013-03-03 06:24:00,
2013-03-03 01:25:00,28.0,19.5,29.81,WSW,248,13.0,17.0,70,-99.99,,,0.00,0.00,VWS V14.01,2013-03-03 06:25:00,
2013-03-03 01:26:00,27.0,18.2,29.81,West,270,11.0,19.0,69,-99.99,,,0.00,0.00,VWS V14.01,2013-03-03 06:26:00,
2013-03-03 01:27:00,27.0,18.2,29.81,WSW,248,10.0,14.0,69,-99.99,,,0.00,0.00,VWS V14.01,2013-03-03 06:27:00,
2013-03-03 01:28:00,27.0,18.2,29.81,West,270,8.0,11.0,69,-99.99,,,0.00,0.00,VWS V14.01,2013-03-03 06:28:00,
2013-03-03 01:29:00,27.0,18.2,29.81,WSW,248,13.0,13.0,69,-99.99,,,0.00,0.00,VWS V14.01,2013-03-03 06:29:00,
2013-03-03 01:30:00,27.0,18.2,29.81,WSW,248,11.0,14.0,69,-99.99,,,0.00,0.00,VWS V14.01,2013-03-03 06:30:00,
2013-03-03 01:31:00,27.0,18.2,29.81,SW,225,7.0,16.0,69,-99.99,,,0.00,0.00,VWS V14.01,2013-03-03 06:31:00,
2013-03-03 01:32:00,27.0,18.2,29.81,West,270,15.0,15.0,69,-99.99,,,0.00,0.00,VWS V14.01,2013-03-03 06:32:00,
2013-03-03 01:33:00,27.0,18.2,29.81,WSW,248,14.0,19.0,69,-99.99,,,0.00,0.00,VWS V14.01,2013-03-03 06:33:00,
2013-03-03 01:34:00,27.0,18.2,29.81,WSW,248,17.0,17.0,69,-99.99,,,0.00,0.00,VWS V14.01,2013-03-03 06:34:00,
2013-03-03 01:35:00,27.0,18.2,29.81,WSW,248,10.0,15.0,69,-99.99,,,0.00,0.00,VWS V14.01,2013-03-03 06:35:00,
2013-03-03 01:36:00,27.0,18.2,29.81,WSW,248,7.0,10.0,69,-99.99,,,0.00,0.00,VWS V14.01,2013-03-03 06:36:00,
2013-03-03 01:37:00,27.0,18.2,29.81,SW,225,6.0,12.0,69,-99.99,,,0.00,0.00,VWS V14.01,2013-03-03 06:37:00,
2013-03-03 01:38:00,27.0,18.5,29.81,WSW,248,10.0,13.0,70,-99.99,,,0.00,0.00,VWS V14.01,2013-03-03 06:38:00,
2013-03-03 01:39:00,27.0,18.5,29.81,WSW,248,12.0,15.0,70,-99.99,,,0.00,0.00,VWS V14.01,2013-03-03 06:39:00,
2013-03-03 01:40:00,27.0,18.2,29.81,SSW,202,9.0,12.0,69,-99.99,,,0.00,0.00,VWS V14.01,2013-03-03 06:40:00,
2013-03-03 01:41:00,27.0,18.9,29.81,West,270,11.0,14.0,71,-99.99,,,0.00,0.00,VWS V14.01,2013-03-03 06:41:00,
2013-03-03 01:42:00,27.0,18.9,29.81,West,270,9.0,11.0,71,-99.99,,,0.00,0.00,VWS V14.01,2013-03-03 06:42:00,
2013-03-03 01:43:00,27.0,18.9,29.81,WSW,248,9.0,9.0,71,-99.99,,,0.00,0.00,VWS V14.01,2013-03-03 06:43:00,
2013-03-03 01:44:00,27.0,18.9,29.81,WSW,248,11.0,14.0,71,-99.99,,,0.00,0.00,VWS V14.01,2013-03-03 06:44:00,
2013-03-03 01:45:00,27.0,18.9,29.81,WSW,248,9.0,11.0,71,-99.99,,,0.00,0.00,VWS V14.01,2013-03-03 06:45:00,
2013-03-03 01:46:00,27.0,18.9,29.81,WSW,248,7.0,15.0,71,-99.99,,,0.00,0.00,VWS V14.01,2013-03-03 06:46:00,
2013-03-03 01:47:00,27.0,18.9,29.81,WSW,248,6.0,12.0,71,-99.99,,,0.00,0.00,VWS V14.01,2013-03-03 06:47:00,
2013-03-03 01:48:00,27.0,19.2,29.81,WSW,248,12.0,12.0,72,-99.99,,,0.00,0.00,VWS V14.01,2013-03-03 06:48:00,
2013-03-03 01:49:00,27.0,19.2,29.81,West,270,10.0,12.0,72,-99.99,,,0.00,0.00,VWS V14.01,2013-03-03 06:49:00,
2013-03-03 01:50:00,27.0,18.9,29.81,West,270,7.0,12.0,71,-99.99,,,0.00,0.00,VWS V14.01,2013-03-03 06:50:00,
2013-03-03 01:51:00,27.0,19.2,29.81,SW,225,9.0,12.0,72,-99.99,,,0.00,0.00,VWS V14.01,2013-03-03 06:51:00,
2013-03-03 01:52:00,27.0,19.2,29.81,WSW,248,9.0,13.0,72,-99.99,,,0.00,0.00,VWS V14.01,2013-03-03 06:52:00,
2013-03-03 01:53:00,27.0,19.2,29.80,West,270,8.0,12.0,72,-99.99,,,0.00,0.00,VWS V14.01,2013-03-03 06:53:00,
2013-03-03 01:54:00,27.0,19.2,29.81,WSW,248,9.0,14.0,72,-99.99,,,0.00,0.00,VWS V14.01,2013-03-03 06:54:00,
2013-03-03 01:55:00,27.0,19.2,29.81,WSW,248,9.0,13.0,72,-99.99,,,0.00,0.00,VWS V14.01,2013-03-03 06:55:00,
2013-03-03 01:56:00,27.0,19.2,29.81,SW,225,10.0,15.0,72,-99.99,,,0.00,0.00,VWS V14.01,2013-03-03 06:56:00,
2013-03-03 01:57:00,27.0,19.2,29.81,WSW,248,11.0,16.0,72,-99.99,,,0.00,0.00,VWS V14.01,2013-03-03 06:57:00,
2013-03-03 01:58:00,27.0,19.2,29.81,WSW,248,9.0,12.0,72,-99.99,,,0.00,0.00,VWS V14.01,2013-03-03 06:58:00,
2013-03-03 01:59:00,27.0,19.2,29.81,West,270,10.0,15.0,72,-99.99,,,0.00,0.00,VWS V14.01,2013-03-03 06:59:00,
2013-03-03 02:00:00,27.0,19.2,29.81,SW,225,11.0,16.0,72,-99.99,,,0.00,0.00,VWS V14.01,2013-03-03 07:00:00,
2013-03-03 02:01:00,27.0,19.2,29.80,WNW,292,8.0,15.0,72,-99.99,,,0.00,0.00,VWS V14.01,2013-03-03 07:01:00,
2013-03-03 02:02:00,27.0,19.2,29.80,WSW,248,10.0,16.0,72,-99.99,,,0.00,0.00,VWS V14.01,2013-03-03 07:02:00,
2013-03-03 02:03:00,27.0,19.2,29.81,WSW,248,8.0,11.0,72,-99.99,,,0.00,0.00,VWS V14.01,2013-03-03 07:03:00,
2013-03-03 02:04:00,27.0,19.2,29.81,WSW,248,14.0,15.0,72,-99.99,,,0.00,0.00,VWS V14.01,2013-03-03 07:04:00,
2013-03-03 02:05:00,27.0,19.2,29.80,West,270,11.0,16.0,72,-99.99,,,0.00,0.00,VWS V14.01,2013-03-03 07:05:00,
2013-03-03 02:06:00,27.0,19.2,29.80,SW,225,11.0,16.0,72,-99.99,,,0.00,0.00,VWS V14.01,2013-03-03 07:06:00,
2013-03-03 02:07:00,27.0,19.2,29.80,WSW,248,7.0,13.0,72,-99.99,,,0.00,0.00,VWS V14.01,2013-03-03 07:07:00,
2013-03-03 02:08:00,27.0,19.2,29.80,WSW,248,14.0,18.0,72,-99.99,,,0.00,0.00,VWS V14.01,2013-03-03 07:08:00,
2013-03-03 02:09:00,27.0,19.2,29.80,WSW,248,11.0,14.0,72,-99.99,,,0.00,0.00,VWS V14.01,2013-03-03 07:09:00,
2013-03-03 02:10:00,27.0,19.2,29.80,West,270,8.0,13.0,72,-99.99,,,0.00,0.00,VWS V14.01,2013-03-03 07:10:00,
2013-03-03 02:11:00,27.0,19.2,29.80,West,270,13.0,15.0,72,-99.99,,,0.00,0.00,VWS V14.01,2013-03-03 07:11:00,
2013-03-03 02:12:00,27.0,19.2,29.80,WSW,248,9.0,13.0,72,-99.99,,,0.00,0.00,VWS V14.01,2013-03-03 07:12:00,
2013-03-03 02:13:00,27.0,19.2,29.80,WSW,248,6.0,11.0,72,-99.99,,,0.00,0.00,VWS V14.01,2013-03-03 07:13:00,
2013-03-03 02:14:00,27.0,19.2,29.80,WSW,248,11.0,13.0,72,-99.99,,,0.00,0.00,VWS V14.01,2013-03-03 07:14:00,
2013-03-03 02:15:00,27.0,19.2,29.80,West,270,7.0,13.0,72,-99.99,,,0.00,0.00,VWS V14.01,2013-03-03 07:15:00,
2013-03-03 02:16:00,27.0,19.2,29.80,West,270,7.0,8.0,72,-99.99,,,0.00,0.00,VWS V14.01,2013-03-03 07:16:00,
2013-03-03 02:17:00,27.0,19.5,29.80,WSW,248,7.0,10.0,73,-99.99,,,0.00,0.00,VWS V14.01,2013-03-03 07:17:00,
2013-03-03 02:18:00,27.0,19.2,29.80,WSW,248,8.0,10.0,72,-99.99,,,0.00,0.00,VWS V14.01,2013-03-03 07:18:00,
2013-03-03 02:19:00,27.0,19.5,29.80,WSW,248,11.0,12.0,73,-99.99,,,0.00,0.00,VWS V14.01,2013-03-03 07:19:00,
2013-03-03 02:20:00,27.0,19.5,29.80,WSW,248,6.0,10.0,73,-99.99,,,0.00,0.00,VWS V14.01,2013-03-03 07:20:00,
2013-03-03 02:21:00,27.0,19.2,29.80,WSW,248,12.0,15.0,72,-99.99,,,0.00,0.00,VWS V14.01,2013-03-03 07:21:00,
2013-03-03 02:22:00,27.0,19.2,29.80,WSW,248,15.0,15.0,72,-99.99,,,0.00,0.00,VWS V14.01,2013-03-03 07:22:00,
2013-03-03 02:23:00,27.0,19.2,29.80,West,270,9.0,16.0,72,-99.99,,,0.00,0.00,VWS V14.01,2013-03-03 07:23:00,
2013-03-03 02:24:00,27.0,19.2,29.80,SW,225,11.0,13.0,72,-99.99,,,0.00,0.00,VWS V14.01,2013-03-03 07:24:00,
2013-03-03 02:25:00,27.0,19.2,29.80,WSW,248,14.0,15.0,72,-99.99,,,0.00,0.00,VWS V14.01,2013-03-03 07:25:00,
2013-03-03 02:26:00,27.0,19.2,29.80,WSW,248,8.0,12.0,72,-99.99,,,0.00,0.00,VWS V14.01,2013-03-03 07:26:00,
2013-03-03 02:27:00,27.0,19.2,29.80,WSW,248,10.0,13.0,72,-99.99,,,0.00,0.00,VWS V14.01,2013-03-03 07:27:00,
2013-03-03 02:28:00,27.0,19.2,29.80,WSW,248,10.0,15.0,72,-99.99,,,0.00,0.00,VWS V14.01,2013-03-03 07:28:00,
2013-03-03 02:29:00,27.0,19.2,29.80,WSW,248,6.0,11.0,72,-99.99,,,0.00,0.00,VWS V14.01,2013-03-03 07:29:00,
2013-03-03 02:30:00,27.0,19.2,29.80,WSW,248,11.0,13.0,72,-99.99,,,0.00,0.00,VWS V14.01,2013-03-03 07:30:00,
2013-03-03 02:31:00,27.0,19.5,29.80,WSW,248,7.0,8.0,73,-99.99,,,0.00,0.00,VWS V14.01,2013-03-03 07:31:00,
2013-03-03 02:32:00,27.0,19.5,29.80,WSW,248,9.0,10.0,73,-99.99,,,0.00,0.00,VWS V14.01,2013-03-03 07:32:00,
2013-03-03 02:33:00,27.0,19.5,29.80,WSW,248,5.0,9.0,73,-99.99,,,0.00,0.00,VWS V14.01,2013-03-03 07:33:00,
2013-03-03 02:34:00,27.0,19.5,29.80,WSW,248,15.0,15.0,73,-99.99,,,0.00,0.00,VWS V14.01,2013-03-03 07:34:00,
2013-03-03 02:35:00,27.0,19.5,29.80,West,270,9.0,10.0,73,-99.99,,,0.00,0.00,VWS V14.01,2013-03-03 07:35:00,
2013-03-03 02:36:00,27.0,19.2,29.80,SW,225,7.0,16.0,72,-99.99,,,0.00,0.00,VWS V14.01,2013-03-03 07:36:00,
2013-03-03 02:37:00,27.0,19.2,29.80,SW,225,11.0,14.0,72,-99.99,,,0.00,0.00,VWS V14.01,2013-03-03 07:37:00,
2013-03-03 02:38:00,27.0,19.2,29.80,SW,225,11.0,13.0,72,-99.99,,,0.00,0.00,VWS V14.01,2013-03-03 07:38:00,
2013-03-03 02:39:00,27.0,19.2,29.80,WSW,248,11.0,13.0,72,-99.99,,,0.00,0.00,VWS V14.01,2013-03-03 07:39:00,
2013-03-03 02:40:00,27.0,19.2,29.80,SW,225,14.0,14.0,72,-99.99,,,0.00,0.00,VWS V14.01,2013-03-03 07:40:00,
2013-03-03 02:41:00,27.0,19.2,29.80,WSW,248,9.0,10.0,72,-99.99,,,0.00,0.00,VWS V14.01,2013-03-03 07:41:00,
2013-03-03 02:42:00,27.0,19.2,29.80,West,270,10.0,12.0,72,-99.99,,,0.00,0.00,VWS V14.01,2013-03-03 07:42:00,
2013-03-03 02:43:00,27.0,19.2,29.79,WSW,248,8.0,11.0,72,-99.99,,,0.00,0.00,VWS V14.01,2013-03-03 07:43:00,
2013-03-03 02:44:00,27.0,19.2,29.80,SW,225,2.0,12.0,72,-99.99,,,0.00,0.00,VWS V14.01,2013-03-03 07:44:00,
2013-03-03 02:45:00,27.0,19.2,29.80,WSW,248,10.0,12.0,72,-99.99,,,0.00,0.00,VWS V14.01,2013-03-03 07:45:00,
2013-03-03 02:46:00,27.0,19.2,29.79,WSW,248,9.0,12.0,72,-99.99,,,0.00,0.00,VWS V14.01,2013-03-03 07:46:00,
2013-03-03 02:47:00,27.0,19.2,29.79,West,270,9.0,11.0,72,-99.99,,,0.00,0.00,VWS V14.01,2013-03-03 07:47:00,
2013-03-03 02:48:00,27.0,19.2,29.79,WSW,248,9.0,13.0,72,-99.99,,,0.00,0.00,VWS V14.01,2013-03-03 07:48:00,
2013-03-03 02:49:00,27.0,19.2,29.79,WSW,248,10.0,14.0,72,-99.99,,,0.00,0.00,VWS V14.01,2013-03-03 07:49:00,
2013-03-03 02:50:00,27.0,19.2,29.79,West,270,9.0,11.0,72,-99.99,,,0.00,0.00,VWS V14.01,2013-03-03 07:50:00,
2013-03-03 02:51:00,27.0,19.2,29.79,SW,225,14.0,18.0,72,-99.99,,,0.00,0.00,VWS V14.01,2013-03-03 07:51:00,
2013-03-03 02:52:00,27.0,19.2,29.79,WSW,248,16.0,21.0,72,-99.99,,,0.00,0.00,VWS V14.01,2013-03-03 07:52:00,
2013-03-03 02:53:00,27.0,19.2,29.79,WSW,248,12.0,16.0,72,-99.99,,,0.00,0.00,VWS V14.01,2013-03-03 07:53:00,
2013-03-03 02:54:00,27.0,19.2,29.79,WSW,248,11.0,13.0,72,-99.99,,,0.00,0.00,VWS V14.01,2013-03-03 07:54:00,
2013-03-03 02:55:00,27.0,19.2,29.79,WSW,248,18.0,21.0,72,-99.99,,,0.00,0.00,VWS V14.01,2013-03-03 07:55:00,
2013-03-03 02:56:00,27.0,19.2,29.79,WSW,248,11.0,17.0,72,-99.99,,,0.00,0.00,VWS V14.01,2013-03-03 07:56:00,
2013-03-03 02:57:00,27.0,19.2,29.79,WSW,248,12.0,16.0,72,-99.99,,,0.00,0.00,VWS V14.01,2013-03-03 07:57:00,
2013-03-03 02:58:00,27.0,19.2,29.79,West,270,12.0,16.0,72,-99.99,,,0.00,0.00,VWS V14.01,2013-03-03 07:58:00,
2013-03-03 02:59:00,27.0,19.2,29.79,WSW,248,10.0,15.0,72,-99.99,,,0.00,0.00,VWS V14.01,2013-03-03 07:59:00,
2013-03-03 03:00:00,27.0,19.2,29.79,West,270,12.0,16.0,72,-99.99,,,0.00,0.00,VWS V14.01,2013-03-03 08:00:00,
2013-03-03 03:01:00,27.0,19.2,29.79,West,270,12.0,14.0,72,-99.99,,,0.00,0.00,VWS V14.01,2013-03-03 08:01:00,
2013-03-03 03:02:00,27.0,19.2,29.79,WSW,248,15.0,15.0,72,-99.99,,,0.00,0.00,VWS V14.01,2013-03-03 08:02:00,
2013-03-03 03:03:00,27.0,19.2,29.79,West,270,10.0,15.0,72,-99.99,,,0.00,0.00,VWS V14.01,2013-03-03 08:03:00,
2013-03-03 03:04:00,27.0,19.2,29.79,WSW,248,9.0,12.0,72,-99.99,,,0.00,0.00,VWS V14.01,2013-03-03 08:04:00,
2013-03-03 03:05:00,27.0,19.2,29.79,WSW,248,11.0,14.0,72,-99.99,,,0.00,0.00,VWS V14.01,2013-03-03 08:05:00,
2013-03-03 03:06:00,27.0,19.2,29.79,WSW,248,8.0,9.0,72,-99.99,,,0.00,0.00,VWS V14.01,2013-03-03 08:06:00,
2013-03-03 03:07:00,27.0,19.2,29.79,WSW,248,12.0,14.0,72,-99.99,,,0.00,0.00,VWS V14.01,2013-03-03 08:07:00,
2013-03-03 03:08:00,27.0,19.2,29.79,WSW,248,8.0,14.0,72,-99.99,,,0.00,0.00,VWS V14.01,2013-03-03 08:08:00,
2013-03-03 03:09:00,27.0,19.2,29.79,WSW,248,8.0,13.0,72,-99.99,,,0.00,0.00,VWS V14.01,2013-03-03 08:09:00,
2013-03-03 03:10:00,27.0,19.2,29.79,WSW,248,14.0,14.0,72,-99.99,,,0.00,0.00,VWS V14.01,2013-03-03 08:10:00,
2013-03-03 03:11:00,27.0,19.2,29.79,WSW,248,9.0,13.0,72,-99.99,,,0.00,0.00,VWS V14.01,2013-03-03 08:11:00,
2013-03-03 03:12:00,27.0,19.2,29.79,West,270,9.0,11.0,72,-99.99,,,0.00,0.00,VWS V14.01,2013-03-03 08:12:00,
2013-03-03 03:13:00,27.0,19.2,29.79,WSW,248,8.0,13.0,72,-99.99,,,0.00,0.00,VWS V14.01,2013-03-03 08:13:00,
2013-03-03 03:14:00,27.0,19.5,29.79,WSW,248,14.0,15.0,73,-99.99,,,0.00,0.00,VWS V14.01,2013-03-03 08:14:00,
2013-03-03 03:15:00,27.0,19.2,29.79,WSW,248,9.0,11.0,72,-99.99,,,0.00,0.00,VWS V14.01,2013-03-03 08:15:00,
2013-03-03 03:16:00,27.0,19.5,29.79,WSW,248,11.0,13.0,73,-99.99,,,0.00,0.00,VWS V14.01,2013-03-03 08:16:00,
2013-03-03 03:17:00,27.0,19.5,29.79,SW,225,10.0,11.0,73,-99.99,,,0.00,0.00,VWS V14.01,2013-03-03 08:17:00,
2013-03-03 03:18:00,27.0,19.5,29.79,WSW,248,11.0,16.0,73,-99.99,,,0.00,0.00,VWS V14.01,2013-03-03 08:18:00,
2013-03-03 03:19:00,27.0,19.5,29.79,WSW,248,17.0,20.0,73,-99.99,,,0.00,0.00,VWS V14.01,2013-03-03 08:19:00,
2013-03-03 03:20:00,27.0,19.5,29.79,SW,225,9.0,11.0,73,-99.99,,,0.00,0.00,VWS V14.01,2013-03-03 08:20:00,
2013-03-03 03:21:00,27.0,19.5,29.79,WSW,248,4.0,10.0,73,-99.99,,,0.00,0.00,VWS V14.01,2013-03-03 08:21:00,
2013-03-03 03:22:00,27.0,19.5,29.79,WSW,248,12.0,13.0,73,-99.99,,,0.00,0.00,VWS V14.01,2013-03-03 08:22:00,
2013-03-03 03:23:00,27.0,19.5,29.79,WSW,248,12.0,14.0,73,-99.99,,,0.00,0.00,VWS V14.01,2013-03-03 08:23:00,
2013-03-03 03:24:00,27.0,19.5,29.79,West,270,12.0,14.0,73,-99.99,,,0.00,0.00,VWS V14.01,2013-03-03 08:24:00,
2013-03-03 03:25:00,27.0,19.5,29.79,WSW,248,10.0,13.0,73,-99.99,,,0.00,0.00,VWS V14.01,2013-03-03 08:25:00,
2013-03-03 03:26:00,27.0,19.5,29.79,SW,225,9.0,11.0,73,-99.99,,,0.00,0.00,VWS V14.01,2013-03-03 08:26:00,
2013-03-03 03:27:00,27.0,19.5,29.79,WSW,248,13.0,15.0,73,-99.99,,,0.00,0.00,VWS V14.01,2013-03-03 08:27:00,
2013-03-03 03:28:00,27.0,19.5,29.79,WSW,248,21.0,23.0,73,-99.99,,,0.00,0.00,VWS V14.01,2013-03-03 08:28:00,
2013-03-03 03:29:00,27.0,19.5,29.79,WSW,248,8.0,21.0,73,-99.99,,,0.00,0.00,VWS V14.01,2013-03-03 08:29:00,
2013-03-03 03:30:00,27.0,19.5,29.79,West,270,10.0,15.0,73,-99.99,,,0.00,0.00,VWS V14.01,2013-03-03 08:30:00,
2013-03-03 03:31:00,27.0,19.8,29.79,WSW,248,13.0,13.0,74,-99.99,,,0.00,0.00,VWS V14.01,2013-03-03 08:31:00,
2013-03-03 03:32:00,27.0,19.5,29.79,WSW,248,17.0,18.0,73,-99.99,,,0.00,0.00,VWS V14.01,2013-03-03 08:32:00,
2013-03-03 03:33:00,27.0,19.5,29.78,West,270,11.0,19.0,73,-99.99,,,0.00,0.00,VWS V14.01,2013-03-03 08:33:00,
2013-03-03 03:34:00,27.0,19.5,29.78,WSW,248,18.0,18.0,73,-99.99,,,0.00,0.00,VWS V14.01,2013-03-03 08:34:00,
2013-03-03 03:35:00,27.0,19.8,29.79,WSW,248,16.0,18.0,74,-99.99,,,0.00,0.00,VWS V14.01,2013-03-03 08:35:00,
2013-03-03 03:36:00,27.0,19.8,29.79,WSW,248,13.0,16.0,74,-99.99,,,0.00,0.00,VWS V14.01,2013-03-03 08:36:00,
2013-03-03 03:37:00,27.0,19.5,29.78,WSW,248,17.0,19.0,73,-99.99,,,0.00,0.00,VWS V14.01,2013-03-03 08:37:00,
2013-03-03 03:38:00,27.0,19.8,29.78,WSW,248,9.0,17.0,74,-99.99,,,0.00,0.00,VWS V14.01,2013-03-03 08:38:00,
2013-03-03 03:39:00,27.0,19.8,29.78,WSW,248,13.0,15.0,74,-99.99,,,0.00,0.00,VWS V14.01,2013-03-03 08:39:00,
2013-03-03 03:40:00,27.0,19.5,29.79,West,270,18.0,19.0,73,-99.99,,,0.00,0.00,VWS V14.01,2013-03-03 08:40:00,
2013-03-03 03:41:00,27.0,19.8,29.79,West,270,7.0,13.0,74,-99.99,,,0.00,0.00,VWS V14.01,2013-03-03 08:41:00,
2013-03-03 03:42:00,27.0,19.8,29.79,SW,225,15.0,15.0,74,-99.99,,,0.00,0.00,VWS V14.01,2013-03-03 08:42:00,
2013-03-03 03:43:00,27.0,19.5,29.78,SW,225,10.0,17.0,73,-99.99,,,0.00,0.00,VWS V14.01,2013-03-03 08:43:00,
2013-03-03 03:44:00,27.0,19.8,29.78,West,270,9.0,15.0,74,-99.99,,,0.00,0.00,VWS V14.01,2013-03-03 08:44:00,
2013-03-03 03:45:00,27.0,19.8,29.79,SW,225,14.0,15.0,74,-99.99,,,0.00,0.00,VWS V14.01,2013-03-03 08:45:00,
2013-03-03 03:46:00,27.0,19.8,29.78,West,270,10.0,15.0,74,-99.99,,,0.00,0.00,VWS V14.01,2013-03-03 08:46:00,
2013-03-03 03:47:00,27.0,19.8,29.79,WSW,248,10.0,13.0,74,-99.99,,,0.00,0.00,VWS V14.01,2013-03-03 08:47:00,
2013-03-03 03:48:00,27.0,19.8,29.79,SW,225,12.0,14.0,74,-99.99,,,0.00,0.00,VWS V14.01,2013-03-03 08:48:00,
2013-03-03 03:49:00,27.0,19.8,29.79,West,270,11.0,16.0,74,-99.99,,,0.00,0.00,VWS V14.01,2013-03-03 08:49:00,
2013-03-03 03:50:00,27.0,19.8,29.79,WSW,248,9.0,13.0,74,-99.99,,,0.00,0.00,VWS V14.01,2013-03-03 08:50:00,
2013-03-03 03:51:00,27.0,19.8,29.79,West,270,9.0,13.0,74,-99.99,,,0.00,0.00,VWS V14.01,2013-03-03 08:51:00,
2013-03-03 03:52:00,27.0,19.8,29.79,WSW,248,9.0,12.0,74,-99.99,,,0.00,0.00,VWS V14.01,2013-03-03 08:52:00,
2013-03-03 03:53:00,27.0,19.8,29.79,SSW,202,11.0,11.0,74,-99.99,,,0.00,0.00,VWS V14.01,2013-03-03 08:53:00,
2013-03-03 03:54:00,27.0,19.8,29.79,West,270,8.0,13.0,74,-99.99,,,0.00,0.00,VWS V14.01,2013-03-03 08:54:00,
2013-03-03 03:55:00,27.0,19.8,29.79,WSW,248,9.0,12.0,74,-99.99,,,0.00,0.00,VWS V14.01,2013-03-03 08:55:00,
2013-03-03 03:56:00,27.0,19.8,29.79,WSW,248,10.0,12.0,74,-99.99,,,0.00,0.00,VWS V14.01,2013-03-03 08:56:00,
2013-03-03 03:57:00,27.0,19.8,29.79,WSW,248,7.0,12.0,74,-99.99,,,0.00,0.00,VWS V14.01,2013-03-03 08:57:00,
2013-03-03 03:58:00,27.0,19.8,29.79,West,270,14.0,18.0,74,-99.99,,,0.00,0.00,VWS V14.01,2013-03-03 08:58:00,
2013-03-03 03:59:00,27.0,19.8,29.79,West,270,8.0,14.0,74,-99.99,,,0.00,0.00,VWS V14.01,2013-03-03 08:59:00,
2013-03-03 04:00:00,27.0,19.8,29.79,West,270,7.0,12.0,74,-99.99,,,0.00,0.00,VWS V14.01,2013-03-03 09:00:00,
2013-03-03 04:01:00,27.0,19.8,29.79,WSW,248,13.0,14.0,74,-99.99,,,0.00,0.00,VWS V14.01,2013-03-03 09:01:00,
2013-03-03 04:02:00,27.0,19.8,29.79,WSW,248,10.0,16.0,74,-99.99,,,0.00,0.00,VWS V14.01,2013-03-03 09:02:00,
2013-03-03 04:03:00,27.0,19.8,29.79,WSW,248,12.0,16.0,74,-99.99,,,0.00,0.00,VWS V14.01,2013-03-03 09:03:00,
2013-03-03 04:04:00,27.0,19.8,29.79,WSW,248,9.0,13.0,74,-99.99,,,0.00,0.00,VWS V14.01,2013-03-03 09:04:00,
2013-03-03 04:05:00,27.0,19.8,29.79,West,270,11.0,16.0,74,-99.99,,,0.00,0.00,VWS V14.01,2013-03-03 09:05:00,
2013-03-03 04:06:00,27.0,19.8,29.79,West,270,14.0,17.0,74,-99.99,,,0.00,0.00,VWS V14.01,2013-03-03 09:06:00,
2013-03-03 04:07:00,27.0,19.8,29.79,WSW,248,13.0,16.0,74,-99.99,,,0.00,0.00,VWS V14.01,2013-03-03 09:07:00,
2013-03-03 04:08:00,27.0,19.8,29.79,WSW,248,15.0,18.0,74,-99.99,,,0.00,0.00,VWS V14.01,2013-03-03 09:08:00,
2013-03-03 04:09:00,27.0,19.8,29.79,WSW,248,16.0,18.0,74,-99.99,,,0.00,0.00,VWS V14.01,2013-03-03 09:09:00,
2013-03-03 04:10:00,27.0,19.8,29.79,WSW,248,14.0,16.0,74,-99.99,,,0.00,0.00,VWS V14.01,2013-03-03 09:10:00,
2013-03-03 04:11:00,27.0,19.5,29.79,WSW,248,10.0,13.0,73,-99.99,,,0.00,0.00,VWS V14.01,2013-03-03 09:11:00,
2013-03-03 04:12:00,27.0,19.8,29.79,West,270,13.0,17.0,74,-99.99,,,0.00,0.00,VWS V14.01,2013-03-03 09:12:00,
2013-03-03 04:13:00,27.0,19.5,29.79,West,270,17.0,21.0,73,-99.99,,,0.00,0.00,VWS V14.01,2013-03-03 09:13:00,
2013-03-03 04:14:00,27.0,19.5,29.79,WSW,248,10.0,17.0,73,-99.99,,,0.00,0.00,VWS V14.01,2013-03-03 09:14:00,
2013-03-03 04:15:00,27.0,19.8,29.79,West,270,14.0,17.0,74,-99.99,,,0.00,0.00,VWS V14.01,2013-03-03 09:15:00,
2013-03-03 04:16:00,27.0,19.5,29.79,WSW,248,17.0,17.0,73,-99.99,,,0.00,0.00,VWS V14.01,2013-03-03 09:16:00,
2013-03-03 04:17:00,27.0,19.5,29.79,WSW,248,15.0,21.0,73,-99.99,,,0.00,0.00,VWS V14.01,2013-03-03 09:17:00,
2013-03-03 04:18:00,27.0,19.5,29.79,WSW,248,13.0,16.0,73,-99.99,,,0.00,0.00,VWS V14.01,2013-03-03 09:18:00,
2013-03-03 04:19:00,27.0,19.5,29.79,WSW,248,10.0,15.0,73,-99.99,,,0.00,0.00,VWS V14.01,2013-03-03 09:19:00,
2013-03-03 04:20:00,27.0,19.5,29.79,WSW,248,16.0,21.0,73,-99.99,,,0.00,0.00,VWS V14.01,2013-03-03 09:20:00,
2013-03-03 04:21:00,27.0,19.5,29.79,West,270,7.0,10.0,73,-99.99,,,0.00,0.00,VWS V14.01,2013-03-03 09:21:00,
2013-03-03 04:22:00,27.0,19.5,29.79,WSW,248,6.0,11.0,73,-99.99,,,0.00,0.00,VWS V14.01,2013-03-03 09:22:00,
2013-03-03 04:23:00,27.0,19.8,29.79,WSW,248,7.0,9.0,74,-99.99,,,0.00,0.00,VWS V14.01,2013-03-03 09:23:00,
2013-03-03 04:24:00,27.0,19.8,29.79,WSW,248,8.0,10.0,74,-99.99,,,0.00,0.00,VWS V14.01,2013-03-03 09:24:00,
2013-03-03 04:25:00,27.0,19.5,29.79,West,270,7.0,11.0,73,-99.99,,,0.00,0.00,VWS V14.01,2013-03-03 09:25:00,
2013-03-03 04:26:00,27.0,19.8,29.79,WSW,248,8.0,13.0,74,-99.99,,,0.00,0.00,VWS V14.01,2013-03-03 09:26:00,
2013-03-03 04:27:00,27.0,19.5,29.79,WSW,248,8.0,10.0,73,-99.99,,,0.00,0.00,VWS V14.01,2013-03-03 09:27:00,
2013-03-03 04:28:00,27.0,19.5,29.79,WSW,248,7.0,11.0,73,-99.99,,,0.00,0.00,VWS V14.01,2013-03-03 09:28:00,
2013-03-03 04:29:00,27.0,19.5,29.79,WSW,248,10.0,10.0,73,-99.99,,,0.00,0.00,VWS V14.01,2013-03-03 09:29:00,
2013-03-03 04:30:00,27.0,19.5,29.79,WSW,248,8.0,10.0,73,-99.99,,,0.00,0.00,VWS V14.01,2013-03-03 09:30:00,
2013-03-03 04:31:00,27.0,19.5,29.79,SW,225,12.0,13.0,73,-99.99,,,0.00,0.00,VWS V14.01,2013-03-03 09:31:00,
2013-03-03 04:32:00,27.0,19.5,29.79,WSW,248,9.0,15.0,73,-99.99,,,0.00,0.00,VWS V14.01,2013-03-03 09:32:00,
2013-03-03 04:33:00,27.0,19.5,29.79,WSW,248,6.0,12.0,73,-99.99,,,0.00,0.00,VWS V14.01,2013-03-03 09:33:00,
2013-03-03 04:34:00,27.0,19.5,29.79,WSW,248,9.0,14.0,73,-99.99,,,0.00,0.00,VWS V14.01,2013-03-03 09:34:00,
2013-03-03 04:35:00,27.0,19.5,29.79,WSW,248,9.0,15.0,73,-99.99,,,0.00,0.00,VWS V14.01,2013-03-03 09:35:00,
2013-03-03 04:36:00,27.0,19.5,29.79,SW,225,8.0,11.0,73,-99.99,,,0.00,0.00,VWS V14.01,2013-03-03 09:36:00,
2013-03-03 04:37:00,27.0,19.5,29.79,West,270,9.0,13.0,73,-99.99,,,0.00,0.00,VWS V14.01,2013-03-03 09:37:00,
2013-03-03 04:38:00,27.0,19.5,29.79,WSW,248,13.0,13.0,73,-99.99,,,0.00,0.00,VWS V14.01,2013-03-03 09:38:00,
2013-03-03 04:40:00,27.0,19.5,29.79,WSW,248,9.0,13.0,73,-99.99,,,0.00,0.00,VWS V14.01,2013-03-03 09:40:00,
2013-03-03 04:45:00,27.0,19.5,29.79,WSW,248,10.0,10.0,73,-99.99,,,0.00,0.00,VWS V14.01,2013-03-03 09:45:00,
2013-03-03 04:50:00,27.0,19.5,29.79,West,270,6.0,6.0,73,-99.99,,,0.00,0.00,VWS V14.01,2013-03-03 09:50:00,
2013-03-03 04:55:00,27.0,19.5,29.79,West,270,11.0,13.0,73,-99.99,,,0.00,0.00,VWS V14.01,2013-03-03 09:55:00,
2013-03-03 05:00:00,27.0,19.5,29.79,WSW,248,10.0,13.0,73,-99.99,,,0.00,0.00,VWS V14.01,2013-03-03 10:00:00,
2013-03-03 05:05:00,27.0,19.5,29.79,West,270,11.0,11.0,73,-99.99,,,0.00,0.00,VWS V14.01,2013-03-03 10:05:00,
2013-03-03 05:10:00,27.0,19.2,29.80,WSW,248,10.0,15.0,72,-99.99,,,0.00,0.00,VWS V14.01,2013-03-03 10:10:00,
2013-03-03 05:15:00,27.0,19.2,29.80,WSW,248,10.0,17.0,72,-99.99,,,0.00,0.00,VWS V14.01,2013-03-03 10:15:00,
2013-03-03 05:20:00,27.0,19.2,29.80,SSW,202,9.0,13.0,72,-99.99,,,0.00,0.00,VWS V14.01,2013-03-03 10:20:00,
2013-03-03 05:25:00,27.0,19.2,29.80,West,270,6.0,9.0,72,-99.99,,,0.00,0.00,VWS V14.01,2013-03-03 10:25:00,
2013-03-03 05:30:00,27.0,19.2,29.80,West,270,7.0,13.0,72,-99.99,,,0.00,0.00,VWS V14.01,2013-03-03 10:30:00,
2013-03-03 05:35:00,27.0,19.2,29.80,SW,225,10.0,13.0,72,-99.99,,,0.00,0.00,VWS V14.01,2013-03-03 10:35:00,
2013-03-03 05:40:00,27.0,19.2,29.80,West,270,13.0,14.0,72,-99.99,,,0.00,0.00,VWS V14.01,2013-03-03 10:40:00,
2013-03-03 05:45:00,27.0,19.2,29.80,SW,225,9.0,9.0,72,-99.99,,,0.00,0.00,VWS V14.01,2013-03-03 10:45:00,
2013-03-03 05:50:00,27.0,19.5,29.80,WSW,248,9.0,11.0,73,-99.99,,,0.00,0.00,VWS V14.01,2013-03-03 10:50:00,
2013-03-03 05:55:00,27.0,19.5,29.80,WSW,248,14.0,14.0,73,-99.99,,,0.00,0.00,VWS V14.01,2013-03-03 10:55:00,
2013-03-03 06:00:00,27.0,19.2,29.80,West,270,5.0,5.0,72,-99.99,,,0.00,0.00,VWS V14.01,2013-03-03 11:00:00,
2013-03-03 06:05:00,27.0,19.2,29.80,WSW,248,12.0,14.0,72,-99.99,,,0.00,0.00,VWS V14.01,2013-03-03 11:05:00,
2013-03-03 06:10:00,27.0,19.2,29.80,West,270,13.0,16.0,72,-99.99,,,0.00,0.00,VWS V14.01,2013-03-03 11:10:00,
2013-03-03 06:15:00,27.0,19.2,29.80,WSW,248,13.0,17.0,72,-99.99,,,0.00,0.00,VWS V14.01,2013-03-03 11:15:00,
2013-03-03 06:20:00,27.0,19.5,29.80,WSW,248,10.0,10.0,73,-99.99,,,0.00,0.00,VWS V14.01,2013-03-03 11:20:00,
2013-03-03 06:25:00,27.0,19.5,29.80,WSW,248,13.0,16.0,73,-99.99,,,0.00,0.00,VWS V14.01,2013-03-03 11:25:00,
2013-03-03 06:30:00,27.0,19.5,29.80,SW,225,9.0,14.0,73,-99.99,,,0.00,0.00,VWS V14.01,2013-03-03 11:30:00,
2013-03-03 06:35:00,27.0,19.8,29.80,WSW,248,11.0,13.0,74,-99.99,,,0.00,0.00,VWS V14.01,2013-03-03 11:35:00,
2013-03-03 06:40:00,26.0,18.9,29.80,WSW,248,12.0,14.0,74,-99.99,,,0.00,0.00,VWS V14.01,2013-03-03 11:40:00,
2013-03-03 06:45:00,27.0,19.5,29.80,West,270,12.0,13.0,73,-99.99,,,0.00,10.00,VWS V14.01,2013-03-03 11:45:00,
2013-03-03 06:50:00,27.0,19.5,29.80,WSW,248,14.0,16.0,73,-99.99,,,0.00,10.00,VWS V14.01,2013-03-03 11:50:00,
2013-03-03 06:55:00,27.0,19.5,29.80,WSW,248,9.0,13.0,73,-99.99,,,0.00,10.00,VWS V14.01,2013-03-03 11:55:00,
2013-03-03 07:00:00,27.0,19.5,29.80,WSW,248,10.0,10.0,73,-99.99,,,0.00,20.00,VWS V14.01,2013-03-03 12:00:00,
2013-03-03 07:05:00,27.0,19.5,29.81,WSW,248,11.0,15.0,73,-99.99,,,0.00,20.00,VWS V14.01,2013-03-03 12:05:00,
2013-03-03 07:10:00,27.0,19.8,29.81,WSW,248,7.0,10.0,74,-99.99,,,0.00,30.00,VWS V14.01,2013-03-03 12:10:00,
2013-03-03 07:15:00,27.0,19.8,29.81,WSW,248,7.0,9.0,74,-99.99,,,0.00,30.00,VWS V14.01,2013-03-03 12:15:00,
2013-03-03 07:20:00,27.0,19.8,29.81,WSW,248,11.0,18.0,74,-99.99,,,0.00,40.00,VWS V14.01,2013-03-03 12:20:00,
2013-03-03 07:25:00,27.0,19.8,29.81,WSW,248,12.0,14.0,74,-99.99,,,0.00,50.00,VWS V14.01,2013-03-03 12:25:00,
2013-03-03 07:30:00,27.0,19.8,29.81,SW,225,8.0,11.0,74,-99.99,,,0.00,60.00,VWS V14.01,2013-03-03 12:30:00,
2013-03-03 07:35:00,27.0,20.1,29.81,WSW,248,13.0,13.0,75,-99.99,,,0.00,70.00,VWS V14.01,2013-03-03 12:35:00,
2013-03-03 07:40:00,27.0,20.1,29.81,SW,225,7.0,9.0,75,-99.99,,,0.00,80.00,VWS V14.01,2013-03-03 12:40:00,
2013-03-03 07:45:00,27.0,20.5,29.82,WSW,248,4.0,4.0,76,-99.99,,,0.00,80.00,VWS V14.01,2013-03-03 12:45:00,
2013-03-03 07:50:00,27.0,20.8,29.82,SW,225,9.0,15.0,77,-99.99,,,0.00,110.00,VWS V14.01,2013-03-03 12:50:00,
2013-03-03 07:55:00,27.0,21.4,29.82,WSW,248,10.0,10.0,79,-99.99,,,0.00,110.00,VWS V14.01,2013-03-03 12:55:00,
2013-03-03 08:00:00,27.0,21.4,29.82,WSW,248,7.0,13.0,79,-99.99,,,0.00,100.00,VWS V14.01,2013-03-03 13:00:00,
2013-03-03 08:05:00,27.0,21.4,29.82,SSW,202,6.0,10.0,79,-99.99,,,0.00,90.00,VWS V14.01,2013-03-03 13:05:00,
2013-03-03 08:10:00,27.0,21.4,29.82,WSW,248,10.0,11.0,79,-99.99,,,0.00,110.00,VWS V14.01,2013-03-03 13:10:00,
2013-03-03 08:15:00,27.0,21.4,29.82,SW,225,16.0,16.0,79,-99.99,,,0.00,90.00,VWS V14.01,2013-03-03 13:15:00,
2013-03-03 08:20:00,26.0,20.4,29.82,SW,225,12.0,15.0,79,-99.99,,,0.00,110.00,VWS V14.01,2013-03-03 13:20:00,
2013-03-03 08:25:00,27.0,21.1,29.82,WSW,248,11.0,15.0,78,-99.99,,,0.00,120.00,VWS V14.01,2013-03-03 13:25:00,
2013-03-03 08:30:00,27.0,20.8,29.81,WSW,248,7.0,14.0,77,-99.99,,,0.00,200.00,VWS V14.01,2013-03-03 13:30:00,
2013-03-03 08:35:00,27.0,20.5,29.82,WSW,248,18.0,19.0,76,-99.99,,,0.00,170.00,VWS V14.01,2013-03-03 13:35:00,
2013-03-03 08:40:00,27.0,20.1,29.81,WSW,248,17.0,18.0,75,-99.99,,,0.00,110.00,VWS V14.01,2013-03-03 13:40:00,
2013-03-03 08:45:00,27.0,20.5,29.81,SW,225,11.0,16.0,76,-99.99,,,0.00,170.00,VWS V14.01,2013-03-03 13:45:00,
2013-03-03 08:50:00,27.0,20.5,29.81,SW,225,6.0,12.0,76,-99.99,,,0.00,170.00,VWS V14.01,2013-03-03 13:50:00,
2013-03-03 08:55:00,27.0,19.8,29.81,WSW,248,13.0,16.0,74,-99.99,,,0.00,140.00,VWS V14.01,2013-03-03 13:55:00,
2013-03-03 09:00:00,27.0,19.8,29.81,SW,225,12.0,16.0,74,-99.99,,,0.00,140.00,VWS V14.01,2013-03-03 14:00:00,
2013-03-03 09:05:00,27.0,19.8,29.81,WSW,248,14.0,17.0,74,-99.99,,,0.00,110.00,VWS V14.01,2013-03-03 14:05:00,
2013-03-03 09:10:00,27.0,19.5,29.81,SW,225,18.0,18.0,73,-99.99,,,0.00,120.00,VWS V14.01,2013-03-03 14:10:00,
2013-03-03 09:15:00,27.0,19.5,29.81,West,270,21.0,24.0,73,-99.99,,,0.00,130.00,VWS V14.01,2013-03-03 14:15:00,
2013-03-03 09:20:00,27.0,19.5,29.81,WSW,248,10.0,16.0,73,-99.99,,,0.00,130.00,VWS V14.01,2013-03-03 14:20:00,
2013-03-03 09:25:00,27.0,19.5,29.81,SW,225,10.0,13.0,73,-99.99,,,0.00,140.00,VWS V14.01,2013-03-03 14:25:00,
2013-03-03 09:30:00,27.0,18.9,29.81,WSW,248,17.0,25.0,71,-99.99,,,0.00,170.00,VWS V14.01,2013-03-03 14:30:00,
2013-03-03 09:35:00,27.0,18.9,29.81,WSW,248,19.0,21.0,71,-99.99,,,0.00,180.00,VWS V14.01,2013-03-03 14:35:00,
2013-03-03 09:40:00,28.0,19.5,29.80,WSW,248,17.0,19.0,70,-99.99,,,0.00,180.00,VWS V14.01,2013-03-03 14:40:00,
2013-03-03 09:45:00,28.0,19.2,29.80,WSW,248,9.0,20.0,69,-99.99,,,0.00,180.00,VWS V14.01,2013-03-03 14:45:00,
2013-03-03 09:50:00,28.0,18.5,29.81,WSW,248,14.0,24.0,67,-99.99,,,0.00,210.00,VWS V14.01,2013-03-03 14:50:00,
2013-03-03 09:55:00,28.0,18.5,29.81,West,270,18.0,20.0,67,-99.99,,,0.00,240.00,VWS V14.01,2013-03-03 14:55:00,
2013-03-03 10:00:00,28.0,17.8,29.80,West,270,17.0,24.0,65,-99.99,,,0.00,230.00,VWS V14.01,2013-03-03 15:00:00,
2013-03-03 10:05:00,28.0,17.8,29.80,WSW,248,19.0,28.0,65,-99.99,,,0.00,230.00,VWS V14.01,2013-03-03 15:05:00,
2013-03-03 10:10:00,28.0,17.8,29.81,WSW,248,10.0,16.0,65,-99.99,,,0.00,200.00,VWS V14.01,2013-03-03 15:10:00,
2013-03-03 10:15:00,28.0,17.8,29.81,WSW,248,11.0,22.0,65,-99.99,,,0.00,200.00,VWS V14.01,2013-03-03 15:15:00,
2013-03-03 10:20:00,28.0,17.8,29.80,WSW,248,24.0,24.0,65,-99.99,,,0.00,250.00,VWS V14.01,2013-03-03 15:20:00,
2013-03-03 10:25:00,28.0,18.1,29.80,West,270,17.0,21.0,66,-99.99,,,0.00,210.00,VWS V14.01,2013-03-03 15:25:00,
2013-03-03 10:30:00,28.0,18.5,29.80,WSW,248,10.0,12.0,67,-99.99,,,0.00,210.00,VWS V14.01,2013-03-03 15:30:00,
2013-03-03 10:35:00,28.0,18.1,29.80,West,270,10.0,20.0,66,-99.99,,,0.00,190.00,VWS V14.01,2013-03-03 15:35:00,
2013-03-03 10:40:00,28.0,18.1,29.80,SW,225,13.0,17.0,66,-99.99,,,0.00,220.00,VWS V14.01,2013-03-03 15:40:00,
2013-03-03 10:45:00,28.0,18.1,29.80,SW,225,7.0,13.0,66,-99.99,,,0.00,210.00,VWS V14.01,2013-03-03 15:45:00,
2013-03-03 10:50:00,29.0,19.1,29.80,West,270,13.0,22.0,66,-99.99,,,0.00,180.00,VWS V14.01,2013-03-03 15:50:00,
2013-03-03 10:55:00,28.0,17.4,29.80,SW,225,14.0,21.0,64,-99.99,,,0.00,210.00,VWS V14.01,2013-03-03 15:55:00,
2013-03-03 11:00:00,29.0,18.4,29.80,WSW,248,13.0,19.0,64,-99.99,,,0.00,250.00,VWS V14.01,2013-03-03 16:00:00,
2013-03-03 11:05:00,29.0,18.4,29.80,WNW,292,15.0,15.0,64,-99.99,,,0.00,180.00,VWS V14.01,2013-03-03 16:05:00,
2013-03-03 11:10:00,29.0,18.4,29.80,WSW,248,5.0,9.0,64,-99.99,,,0.00,210.00,VWS V14.01,2013-03-03 16:10:00,
2013-03-03 11:15:00,29.0,18.0,29.80,WSW,248,24.0,25.0,63,-99.99,,,0.00,240.00,VWS V14.01,2013-03-03 16:15:00,
2013-03-03 11:20:00,29.0,18.0,29.80,WSW,248,17.0,21.0,63,-99.99,,,0.00,280.00,VWS V14.01,2013-03-03 16:20:00,
2013-03-03 11:25:00,29.0,17.6,29.80,WSW,248,16.0,26.0,62,-99.99,,,0.00,290.00,VWS V14.01,2013-03-03 16:25:00,
2013-03-03 11:30:00,29.0,18.0,29.80,WNW,292,5.0,12.0,63,-99.99,,,0.00,250.00,VWS V14.01,2013-03-03 16:30:00,
2013-03-03 11:35:00,30.0,18.6,29.80,SW,225,10.0,15.0,62,-99.99,,,0.00,250.00,VWS V14.01,2013-03-03 16:35:00,
2013-03-03 11:40:00,29.0,17.6,29.79,WSW,248,15.0,20.0,62,-99.99,,,0.00,260.00,VWS V14.01,2013-03-03 16:40:00,
2013-03-03 11:45:00,30.0,18.6,29.79,WSW,248,16.0,18.0,62,-99.99,,,0.00,280.00,VWS V14.01,2013-03-03 16:45:00,
2013-03-03 11:50:00,29.0,17.6,29.79,SSW,202,6.0,14.0,62,-99.99,,,0.00,300.00,VWS V14.01,2013-03-03 16:50:00,
2013-03-03 11:55:00,30.0,18.6,29.79,West,270,12.0,21.0,62,-99.99,,,0.00,350.00,VWS V14.01,2013-03-03 16:55:00,
2013-03-03 12:00:00,30.0,18.2,29.79,West,270,14.0,25.0,61,-99.99,,,0.00,270.00,VWS V14.01,2013-03-03 17:00:00,
2013-03-03 12:05:00,30.0,18.6,29.79,SW,225,9.0,16.0,62,-99.99,,,0.00,350.00,VWS V14.01,2013-03-03 17:05:00,
2013-03-03 12:10:00,30.0,18.2,29.78,WSW,248,10.0,10.0,61,-99.99,,,0.00,280.00,VWS V14.01,2013-03-03 17:10:00,
2013-03-03 12:15:00,30.0,18.2,29.79,WSW,248,17.0,19.0,61,-99.99,,,0.00,300.00,VWS V14.01,2013-03-03 17:15:00,
2013-03-03 12:20:00,30.0,18.6,29.79,WSW,248,9.0,16.0,62,-99.99,,,0.00,330.00,VWS V14.01,2013-03-03 17:20:00,
2013-03-03 12:25:00,30.0,18.2,29.78,WNW,292,10.0,16.0,61,-99.99,,,0.00,300.00,VWS V14.01,2013-03-03 17:25:00,
2013-03-03 12:30:00,31.0,18.8,29.78,WSW,248,14.0,16.0,60,-99.99,,,0.00,330.00,VWS V14.01,2013-03-03 17:30:00,
2013-03-03 12:35:00,30.0,17.8,29.78,WSW,248,17.0,21.0,60,-99.99,,,0.00,300.00,VWS V14.01,2013-03-03 17:35:00,
2013-03-03 12:40:00,31.0,19.1,29.78,WSW,248,9.0,9.0,61,-99.99,,,0.00,280.00,VWS V14.01,2013-03-03 17:40:00,
2013-03-03 12:45:00,31.0,18.4,29.78,West,270,18.0,19.0,59,-99.99,,,0.00,370.00,VWS V14.01,2013-03-03 17:45:00,
2013-03-03 12:50:00,31.0,18.8,29.77,WSW,248,11.0,11.0,60,-99.99,,,0.00,310.00,VWS V14.01,2013-03-03 17:50:00,
2013-03-03 12:55:00,31.0,18.8,29.77,WSW,248,7.0,14.0,60,-99.99,,,0.00,300.00,VWS V14.01,2013-03-03 17:55:00,
2013-03-03 13:00:00,31.0,18.4,29.77,West,270,6.0,12.0,59,-99.99,,,0.00,310.00,VWS V14.01,2013-03-03 18:00:00,
2013-03-03 13:05:00,31.0,18.4,29.77,WSW,248,9.0,21.0,59,-99.99,,,0.00,310.00,VWS V14.01,2013-03-03 18:05:00,
2013-03-03 13:10:00,31.0,18.4,29.77,WSW,248,23.0,23.0,59,-99.99,,,0.00,310.00,VWS V14.01,2013-03-03 18:10:00,
2013-03-03 13:15:00,31.0,18.8,29.77,WSW,248,14.0,20.0,60,-99.99,,,0.00,330.00,VWS V14.01,2013-03-03 18:15:00,
2013-03-03 13:20:00,31.0,18.0,29.77,West,270,21.0,24.0,58,-99.99,,,0.00,300.00,VWS V14.01,2013-03-03 18:20:00,
2013-03-03 13:25:00,31.0,18.4,29.76,WNW,292,18.0,19.0,59,-99.99,,,0.00,290.00,VWS V14.01,2013-03-03 18:25:00,
2013-03-03 13:30:00,32.0,19.3,29.76,West,270,6.0,17.0,59,-99.99,,,0.00,380.00,VWS V14.01,2013-03-03 18:30:00,
2013-03-03 13:35:00,32.0,18.9,29.76,NW,315,5.0,9.0,58,-99.99,,,0.00,330.00,VWS V14.01,2013-03-03 18:35:00,
2013-03-03 13:40:00,33.0,19.4,29.76,West,270,9.0,15.0,57,-99.99,,,0.00,340.00,VWS V14.01,2013-03-03 18:40:00,
2013-03-03 13:45:00,32.0,18.5,29.76,WSW,248,9.0,18.0,57,-99.99,,,0.00,270.00,VWS V14.01,2013-03-03 18:45:00,
2013-03-03 13:50:00,33.0,19.4,29.75,West,270,8.0,13.0,57,-99.99,,,0.00,250.00,VWS V14.01,2013-03-03 18:50:00,
2013-03-03 13:55:00,33.0,19.0,29.76,WNW,292,7.0,15.0,56,-99.99,,,0.00,220.00,VWS V14.01,2013-03-03 18:55:00,
2013-03-03 14:00:00,33.0,19.0,29.75,WSW,248,14.0,16.0,56,-99.99,,,0.00,210.00,VWS V14.01,2013-03-03 19:00:00,
2013-03-03 14:05:00,32.0,18.1,29.75,West,270,15.0,19.0,56,-99.99,,,0.00,210.00,VWS V14.01,2013-03-03 19:05:00,
2013-03-03 14:10:00,32.0,18.1,29.75,West,270,12.0,17.0,56,-99.99,,,0.00,210.00,VWS V14.01,2013-03-03 19:10:00,
2013-03-03 14:15:00,33.0,19.0,29.75,WSW,248,17.0,19.0,56,-99.99,,,0.00,190.00,VWS V14.01,2013-03-03 19:15:00,
2013-03-03 14:20:00,33.0,19.0,29.76,WSW,248,19.0,19.0,56,-99.99,,,0.00,170.00,VWS V14.01,2013-03-03 19:20:00,
2013-03-03 14:25:00,33.0,19.0,29.76,WSW,248,12.0,13.0,56,-99.99,,,0.00,140.00,VWS V14.01,2013-03-03 19:25:00,
2013-03-03 14:30:00,33.0,19.0,29.76,WSW,248,10.0,10.0,56,-99.99,,,0.00,140.00,VWS V14.01,2013-03-03 19:30:00,
2013-03-03 14:35:00,33.0,18.6,29.76,SW,225,13.0,20.0,55,-99.99,,,0.00,140.00,VWS V14.01,2013-03-03 19:35:00,
2013-03-03 14:40:00,33.0,19.0,29.76,West,270,13.0,20.0,56,-99.99,,,0.00,140.00,VWS V14.01,2013-03-03 19:40:00,
2013-03-03 14:45:00,33.0,19.0,29.75,West,270,12.0,18.0,56,-99.99,,,0.00,130.00,VWS V14.01,2013-03-03 19:45:00,
2013-03-03 14:50:00,33.0,19.0,29.75,WSW,248,12.0,19.0,56,-99.99,,,0.00,120.00,VWS V14.01,2013-03-03 19:50:00,
2013-03-03 14:55:00,33.0,19.0,29.75,WSW,248,14.0,19.0,56,-99.99,,,0.00,130.00,VWS V14.01,2013-03-03 19:55:00,
2013-03-03 15:00:00,33.0,19.0,29.75,West,270,8.0,9.0,56,-99.99,,,0.00,130.00,VWS V14.01,2013-03-03 20:00:00,
2013-03-03 15:05:00,33.0,19.4,29.75,WSW,248,4.0,5.0,57,-99.99,,,0.00,140.00,VWS V14.01,2013-03-03 20:05:00,
2013-03-03 15:10:00,33.0,19.0,29.75,SW,225,10.0,10.0,56,-99.99,,,0.00,160.00,VWS V14.01,2013-03-03 20:10:00,
2013-03-03 15:15:00,33.0,19.0,29.75,WSW,248,10.0,15.0,56,-99.99,,,0.00,150.00,VWS V14.01,2013-03-03 20:15:00,
2013-03-03 15:20:00,33.0,19.0,29.75,West,270,16.0,20.0,56,-99.99,,,0.00,130.00,VWS V14.01,2013-03-03 20:20:00,
2013-03-03 15:25:00,33.0,19.0,29.75,WSW,248,9.0,14.0,56,-99.99,,,0.00,120.00,VWS V14.01,2013-03-03 20:25:00,
2013-03-03 15:30:00,33.0,19.0,29.75,SW,225,6.0,18.0,56,-99.99,,,0.00,110.00,VWS V14.01,2013-03-03 20:30:00,
2013-03-03 15:35:00,33.0,19.4,29.75,West,270,10.0,16.0,57,-99.99,,,0.00,100.00,VWS V14.01,2013-03-03 20:35:00,
2013-03-03 15:40:00,34.0,20.4,29.75,WSW,248,10.0,13.0,57,-99.99,,,0.00,100.00,VWS V14.01,2013-03-03 20:40:00,
2013-03-03 15:45:00,33.0,19.4,29.75,WSW,248,8.0,17.0,57,-99.99,,,0.00,100.00,VWS V14.01,2013-03-03 20:45:00,
2013-03-03 15:50:00,33.0,19.4,29.75,West,270,13.0,18.0,57,-99.99,,,0.00,110.00,VWS V14.01,2013-03-03 20:50:00,
2013-03-03 15:55:00,33.0,19.9,29.75,SW,225,10.0,19.0,58,-99.99,,,0.00,90.00,VWS V14.01,2013-03-03 20:55:00,
2013-03-03 16:00:00,33.0,19.9,29.76,SW,225,9.0,17.0,58,-99.99,,,0.00,100.00,VWS V14.01,2013-03-03 21:00:00,
2013-03-03 16:05:00,33.0,20.2,29.76,WSW,248,12.0,18.0,59,-99.99,,,0.00,90.00,VWS V14.01,2013-03-03 21:05:00,
2013-03-03 16:10:00,33.0,20.6,29.76,SW,225,8.0,18.0,60,-99.99,,,0.00,90.00,VWS V14.01,2013-03-03 21:10:00,
2013-03-03 16:15:00,33.0,20.6,29.76,WSW,248,17.0,20.0,60,-99.99,,,0.00,80.00,VWS V14.01,2013-03-03 21:15:00,
2013-03-03 16:20:00,33.0,21.0,29.76,WSW,248,11.0,22.0,61,-99.99,,,0.00,70.00,VWS V14.01,2013-03-03 21:20:00,
2013-03-03 16:25:00,33.0,21.0,29.76,WSW,248,12.0,17.0,61,-99.99,,,0.00,80.00,VWS V14.01,2013-03-03 21:25:00,
2013-03-03 16:30:00,33.0,21.0,29.77,WSW,248,16.0,20.0,61,-99.99,,,0.00,80.00,VWS V14.01,2013-03-03 21:30:00,
2013-03-03 16:35:00,33.0,21.0,29.76,SW,225,14.0,15.0,61,-99.99,,,0.00,70.00,VWS V14.01,2013-03-03 21:35:00,
2013-03-03 16:40:00,33.0,21.4,29.76,WSW,248,14.0,19.0,62,-99.99,,,0.00,60.00,VWS V14.01,2013-03-03 21:40:00,
2013-03-03 16:45:00,33.0,21.8,29.76,WSW,248,10.0,11.0,63,-99.99,,,0.00,60.00,VWS V14.01,2013-03-03 21:45:00,
2013-03-03 16:50:00,33.0,21.8,29.77,WSW,248,13.0,14.0,63,-99.99,,,0.00,60.00,VWS V14.01,2013-03-03 21:50:00,
2013-03-03 16:55:00,33.0,21.8,29.77,West,270,13.0,14.0,63,-99.99,,,0.00,50.00,VWS V14.01,2013-03-03 21:55:00,
2013-03-03 17:00:00,33.0,22.2,29.77,WSW,248,13.0,13.0,64,-99.99,,,0.00,40.00,VWS V14.01,2013-03-03 22:00:00,
2013-03-03 17:05:00,33.0,21.8,29.77,West,270,14.0,14.0,63,-99.99,,,0.00,40.00,VWS V14.01,2013-03-03 22:05:00,
2013-03-03 17:10:00,33.0,21.8,29.77,West,270,7.0,17.0,63,-99.99,,,0.00,30.00,VWS V14.01,2013-03-03 22:10:00,
2013-03-03 17:15:00,33.0,21.8,29.77,WSW,248,16.0,21.0,63,-99.99,,,0.00,30.00,VWS V14.01,2013-03-03 22:15:00,
2013-03-03 17:20:00,33.0,21.4,29.77,WSW,248,12.0,18.0,62,-99.99,,,0.00,20.00,VWS V14.01,2013-03-03 22:20:00,
2013-03-03 17:25:00,33.0,21.4,29.77,WSW,248,10.0,13.0,62,-99.99,,,0.00,20.00,VWS V14.01,2013-03-03 22:25:00,
2013-03-03 17:30:00,33.0,21.4,29.77,West,270,8.0,18.0,62,-99.99,,,0.00,10.00,VWS V14.01,2013-03-03 22:30:00,
2013-03-03 17:35:00,33.0,21.8,29.77,WSW,248,10.0,10.0,63,-99.99,,,0.00,10.00,VWS V14.01,2013-03-03 22:35:00,
2013-03-03 17:40:00,33.0,21.8,29.77,West,270,10.0,14.0,63,-99.99,,,0.00,10.00,VWS V14.01,2013-03-03 22:40:00,
2013-03-03 17:45:00,33.0,22.2,29.78,SW,225,10.0,16.0,64,-99.99,,,0.00,10.00,VWS V14.01,2013-03-03 22:45:00,
2013-03-03 17:50:00,33.0,22.2,29.77,WSW,248,9.0,18.0,64,-99.99,,,0.00,0.00,VWS V14.01,2013-03-03 22:50:00,
2013-03-03 17:55:00,33.0,22.5,29.78,WSW,248,10.0,10.0,65,-99.99,,,0.00,0.00,VWS V14.01,2013-03-03 22:55:00,
2013-03-03 18:00:00,33.0,22.2,29.78,WSW,248,11.0,12.0,64,-99.99,,,0.00,0.00,VWS V14.01,2013-03-03 23:00:00,
2013-03-03 18:05:00,33.0,22.5,29.78,West,270,7.0,12.0,65,-99.99,,,0.00,0.00,VWS V14.01,2013-03-03 23:05:00,
2013-03-03 18:10:00,33.0,22.2,29.78,WSW,248,10.0,13.0,64,-99.99,,,0.00,0.00,VWS V14.01,2013-03-03 23:10:00,
2013-03-03 18:15:00,32.0,21.2,29.78,SW,225,13.0,18.0,64,-99.99,,,0.00,0.00,VWS V14.01,2013-03-03 23:15:00,
2013-03-03 18:20:00,32.0,21.2,29.79,WNW,292,9.0,10.0,64,-99.99,,,0.00,0.00,VWS V14.01,2013-03-03 23:20:00,
2013-03-03 18:25:00,32.0,21.2,29.79,WSW,248,16.0,19.0,64,-99.99,,,0.00,0.00,VWS V14.01,2013-03-03 23:25:00,
2013-03-03 18:30:00,32.0,21.2,29.79,WSW,248,11.0,15.0,64,-99.99,,,0.00,0.00,VWS V14.01,2013-03-03 23:30:00,
2013-03-03 18:35:00,32.0,21.6,29.79,WSW,248,7.0,14.0,65,-99.99,,,0.00,0.00,VWS V14.01,2013-03-03 23:35:00,
2013-03-03 18:40:00,32.0,21.6,29.79,WSW,248,12.0,14.0,65,-99.99,,,0.00,0.00,VWS V14.01,2013-03-03 23:40:00,
2013-03-03 18:45:00,32.0,21.6,29.80,West,270,9.0,9.0,65,-99.99,,,0.00,0.00,VWS V14.01,2013-03-03 23:45:00,
2013-03-03 18:50:00,32.0,21.6,29.80,WSW,248,8.0,12.0,65,-99.99,,,0.00,0.00,VWS V14.01,2013-03-03 23:50:00,
2013-03-03 18:55:00,32.0,21.6,29.80,WNW,292,9.0,14.0,65,-99.99,,,0.00,0.00,VWS V14.01,2013-03-03 23:55:00,
2013-03-03 19:00:00,32.0,21.2,29.80,West,270,18.0,19.0,64,-99.99,,,0.00,0.00,VWS V14.01,2013-03-04 00:00:00,
2013-03-03 19:05:00,32.0,21.2,29.80,West,270,13.0,17.0,64,-99.99,,,0.00,0.00,VWS V14.01,2013-03-04 00:05:00,
2013-03-03 19:10:00,32.0,21.2,29.80,West,270,16.0,19.0,64,-99.99,,,0.00,0.00,VWS V14.01,2013-03-04 00:10:00,
2013-03-03 19:15:00,32.0,21.2,29.81,West,270,7.0,18.0,64,-99.99,,,0.00,0.00,VWS V14.01,2013-03-04 00:15:00,
2013-03-03 19:20:00,32.0,21.2,29.81,WSW,248,7.0,13.0,64,-99.99,,,0.00,0.00,VWS V14.01,2013-03-04 00:20:00,
2013-03-03 19:25:00,32.0,21.2,29.81,WSW,248,15.0,18.0,64,-99.99,,,0.00,0.00,VWS V14.01,2013-03-04 00:25:00,
2013-03-03 19:30:00,32.0,21.6,29.81,WSW,248,12.0,14.0,65,-99.99,,,0.00,0.00,VWS V14.01,2013-03-04 00:30:00,
2013-03-03 19:35:00,32.0,21.2,29.80,WSW,248,9.0,13.0,64,-99.99,,,0.00,0.00,VWS V14.01,2013-03-04 00:35:00,
2013-03-03 19:40:00,32.0,21.2,29.80,WSW,248,17.0,17.0,64,-99.99,,,0.00,0.00,VWS V14.01,2013-03-04 00:40:00,
2013-03-03 19:45:00,32.0,21.2,29.81,WSW,248,15.0,17.0,64,-99.99,,,0.00,0.00,VWS V14.01,2013-03-04 00:45:00,
2013-03-03 19:50:00,32.0,21.2,29.81,West,270,10.0,15.0,64,-99.99,,,0.00,0.00,VWS V14.01,2013-03-04 00:50:00,
2013-03-03 19:55:00,32.0,21.6,29.81,West,270,19.0,22.0,65,-99.99,,,0.00,0.00,VWS V14.01,2013-03-04 00:55:00,
2013-03-03 20:00:00,32.0,21.6,29.81,West,270,9.0,18.0,65,-99.99,,,0.00,0.00,VWS V14.01,2013-03-04 01:00:00,
2013-03-03 20:05:00,32.0,21.9,29.81,WSW,248,9.0,13.0,66,-99.99,,,0.00,0.00,VWS V14.01,2013-03-04 01:05:00,
2013-03-03 20:10:00,32.0,21.9,29.81,West,270,17.0,19.0,66,-99.99,,,0.00,0.00,VWS V14.01,2013-03-04 01:10:00,
2013-03-03 20:15:00,32.0,21.9,29.82,WSW,248,17.0,20.0,66,-99.99,,,0.00,0.00,VWS V14.01,2013-03-04 01:15:00,
2013-03-03 20:20:00,31.0,21.0,29.82,WSW,248,11.0,18.0,66,-99.99,,,0.00,0.00,VWS V14.01,2013-03-04 01:20:00,
2013-03-03 20:25:00,32.0,21.9,29.82,WSW,248,13.0,17.0,66,-99.99,,,0.00,0.00,VWS V14.01,2013-03-04 01:25:00,
2013-03-03 20:30:00,31.0,20.6,29.82,WSW,248,15.0,17.0,65,-99.99,,,0.00,0.00,VWS V14.01,2013-03-04 01:30:00,
2013-03-03 20:35:00,31.0,20.6,29.83,West,270,7.0,16.0,65,-99.99,,,0.00,0.00,VWS V14.01,2013-03-04 01:35:00,
2013-03-03 20:40:00,31.0,20.3,29.82,WSW,248,19.0,23.0,64,-99.99,,,0.00,0.00,VWS V14.01,2013-03-04 01:40:00,
2013-03-03 20:45:00,31.0,20.6,29.83,SW,225,10.0,16.0,65,-99.99,,,0.00,0.00,VWS V14.01,2013-03-04 01:45:00,
2013-03-03 20:50:00,31.0,21.0,29.83,West,270,13.0,16.0,66,-99.99,,,0.00,0.00,VWS V14.01,2013-03-04 01:50:00,
2013-03-03 20:55:00,31.0,21.7,29.83,West,270,13.0,14.0,68,-99.99,,,0.00,0.00,VWS V14.01,2013-03-04 01:55:00,
2013-03-03 21:00:00,31.0,21.7,29.83,WSW,248,19.0,19.0,68,-99.99,,,0.00,0.00,VWS V14.01,2013-03-04 02:00:00,
2013-03-03 21:05:00,31.0,22.0,29.83,WSW,248,17.0,17.0,69,-99.99,,,0.00,0.00,VWS V14.01,2013-03-04 02:05:00,
2013-03-03 21:10:00,31.0,22.0,29.83,WSW,248,9.0,12.0,69,-99.99,,,0.00,0.00,VWS V14.01,2013-03-04 02:10:00,
2013-03-03 21:15:00,31.0,21.3,29.83,West,270,15.0,20.0,67,-99.99,,,0.00,0.00,VWS V14.01,2013-03-04 02:15:00,
2013-03-03 21:20:00,30.0,21.8,29.83,WSW,248,15.0,17.0,71,-99.99,,,0.00,0.00,VWS V14.01,2013-03-04 02:20:00,
2013-03-03 21:25:00,30.0,22.1,29.83,West,270,10.0,19.0,72,-99.99,,,0.00,0.00,VWS V14.01,2013-03-04 02:25:00,
2013-03-03 21:30:00,30.0,22.4,29.83,WSW,248,13.0,18.0,73,-99.99,,,0.00,0.00,VWS V14.01,2013-03-04 02:30:00,
2013-03-03 21:35:00,30.0,21.4,29.84,WSW,248,20.0,22.0,70,-99.99,,,0.00,0.00,VWS V14.01,2013-03-04 02:35:00,
2013-03-03 21:40:00,30.0,20.4,29.84,WSW,248,16.0,22.0,67,-99.99,,,0.00,0.00,VWS V14.01,2013-03-04 02:40:00,
2013-03-03 21:45:00,30.0,19.3,29.84,WSW,248,17.0,17.0,64,-99.99,,,0.00,0.00,VWS V14.01,2013-03-04 02:45:00,
2013-03-03 21:50:00,30.0,19.0,29.84,WSW,248,14.0,14.0,63,-99.99,,,0.00,0.00,VWS V14.01,2013-03-04 02:50:00,
2013-03-03 21:55:00,30.0,19.0,29.84,WSW,248,16.0,16.0,63,-99.99,,,0.00,0.00,VWS V14.01,2013-03-04 02:55:00,
2013-03-03 22:00:00,30.0,19.0,29.84,WSW,248,20.0,27.0,63,-99.99,,,0.00,0.00,VWS V14.01,2013-03-04 03:00:00,
2013-03-03 22:05:00,30.0,19.0,29.85,WSW,248,19.0,25.0,63,-99.99,,,0.00,0.00,VWS V14.01,2013-03-04 03:05:00,
2013-03-03 22:10:00,29.0,17.6,29.85,SW,225,19.0,24.0,62,-99.99,,,0.00,0.00,VWS V14.01,2013-03-04 03:10:00,
2013-03-03 22:15:00,29.0,18.0,29.85,West,270,15.0,20.0,63,-99.99,,,0.00,0.00,VWS V14.01,2013-03-04 03:15:00,
2013-03-03 22:20:00,29.0,18.0,29.84,WSW,248,19.0,25.0,63,-99.99,,,0.00,0.00,VWS V14.01,2013-03-04 03:20:00,
2013-03-03 22:25:00,29.0,18.0,29.85,WSW,248,22.0,28.0,63,-99.99,,,0.00,0.00,VWS V14.01,2013-03-04 03:25:00,
2013-03-03 22:30:00,29.0,18.4,29.85,West,270,18.0,19.0,64,-99.99,,,0.00,0.00,VWS V14.01,2013-03-04 03:30:00,
2013-03-03 22:35:00,29.0,18.4,29.85,WSW,248,12.0,12.0,64,-99.99,,,0.00,0.00,VWS V14.01,2013-03-04 03:35:00,
2013-03-03 22:40:00,29.0,18.4,29.84,West,270,15.0,20.0,64,-99.99,,,0.00,0.00,VWS V14.01,2013-03-04 03:40:00,
2013-03-03 22:45:00,29.0,18.7,29.85,West,270,15.0,18.0,65,-99.99,,,0.00,0.00,VWS V14.01,2013-03-04 03:45:00,
2013-03-03 22:50:00,29.0,18.7,29.84,SW,225,17.0,18.0,65,-99.99,,,0.00,0.00,VWS V14.01,2013-03-04 03:50:00,
2013-03-03 22:55:00,29.0,18.7,29.85,West,270,19.0,20.0,65,-99.99,,,0.00,0.00,VWS V14.01,2013-03-04 03:55:00,
2013-03-03 23:00:00,29.0,19.1,29.85,SW,225,5.0,5.0,66,-99.99,,,0.00,0.00,VWS V14.01,2013-03-04 04:00:00,
2013-03-03 23:05:00,29.0,19.1,29.85,WNW,292,9.0,14.0,66,-99.99,,,0.00,0.00,VWS V14.01,2013-03-04 04:05:00,
2013-03-03 23:10:00,29.0,19.1,29.85,West,270,13.0,13.0,66,-99.99,,,0.00,0.00,VWS V14.01,2013-03-04 04:10:00,
2013-03-03 23:15:00,29.0,19.1,29.85,West,270,13.0,13.0,66,-99.99,,,0.00,0.00,VWS V14.01,2013-03-04 04:15:00,
2013-03-03 23:20:00,29.0,19.1,29.85,WSW,248,8.0,13.0,66,-99.99,,,0.00,0.00,VWS V14.01,2013-03-04 04:20:00,
2013-03-03 23:25:00,29.0,19.1,29.85,WSW,248,14.0,15.0,66,-99.99,,,0.00,0.00,VWS V14.01,2013-03-04 04:25:00,
2013-03-03 23:30:00,29.0,19.4,29.84,WSW,248,16.0,21.0,67,-99.99,,,0.00,0.00,VWS V14.01,2013-03-04 04:30:00,
2013-03-03 23:35:00,29.0,19.4,29.85,WSW,248,13.0,22.0,67,-99.99,,,0.00,0.00,VWS V14.01,2013-03-04 04:35:00,
2013-03-03 23:40:00,29.0,19.4,29.84,West,270,10.0,16.0,67,-99.99,,,0.00,0.00,VWS V14.01,2013-03-04 04:40:00,
2013-03-03 23:45:00,29.0,19.8,29.84,West,270,14.0,16.0,68,-99.99,,,0.00,0.00,VWS V14.01,2013-03-04 04:45:00,
2013-03-03 23:50:00,29.0,19.8,29.84,West,270,16.0,21.0,68,-99.99,,,0.00,0.00,VWS V14.01,2013-03-04 04:50:00,
2013-03-03 23:55:00,29.0,19.8,29.85,WSW,248,8.0,10.0,68,-99.99,,,0.00,0.00,VWS V14.01,2013-03-04 04:55:00,